Погода в Тикрите

Ирак     34°37′13″N   43°40′32″E
темп.,
°C
ветер,
м/с
пор.,
м/с
влажн.,
%
обл.,
%
осадки,
мм/ч
давл.,
гПа
погр.,
м
21 января, пт
пт2100:00+3зсз12500 0.0 102615
03:00+3сз34490 0.0 102750
06:00+1сз34510 0.0 102843
09:00+3сз22460 0.0 1030158
12:00+6сз01350 0.0 1030747
15:00+8ссв22300 0.0 10281038
18:00+7с22370 0.0 102812
21:00+6с22420 0.0 102916
22 января, сб
сб2200:00+4ссв33530 0.0 102837
03:00+3ссв34560 0.0 102748
06:00+2с34594 0.0 102747
09:00+4ссв34505 0.0 1027202
12:00+8с33381 0.0 1026564
15:00+10ссз33375 0.0 1023868
18:00+8с33450 0.0 102244
21:00+6с33510 0.0 102326
23 января, вс
вс2300:00+5ссв33520 0.0 102222
03:00+4св33530 0.0 102137
06:00+4св22520 0.0 102115
09:00+6в22430 0.0 1021125
12:00+10вюв33340 0.0 1020574
15:00+12вюв34285 0.0 1018866
18:00+10вюв333382 0.0 101727
21:00+9юв3337100 0.0 101832
24 января, пн
пн2400:00+8вюв4441100 0.0 101837
03:00+7вюв444424 0.0 101841
06:00+6юв44470 0.0 101841
09:00+8ююв35400 0.0 1020176
12:00+13ююз45305 0.0 1020807
15:00+14з44425 0.0 10191227
18:00+10сз69530 0.0 1022307
21:00+8ссз58640 0.0 1024175
25 января, вт
вт2500:00+7ссз46680 0.0 1025103
03:00+6ссз46740 0.0 1025114
06:00+5ссз59764 0.0 1026178
09:00+7с58630 0.0 1027283
12:00+12с67340 0.0 1026896
15:00+13ссз67310 0.0 10231169
18:00+10ссз58400 0.0 1023153
21:00+8ссз59480 0.0 1023147